Left ArrowRight Arrow

39.51506, -84.39828

Hourly Observations for June 22, 2024

Temp ( °F °C ) Dew Point ( °F °C ) Humidity (%) Winds ( mph kmh ) Pressure ( in mb ) Visibility ( mi km ) Precip ( " mm )
12:15 am 00:15 Clear 71 21.9 72 22 N/A Calm 30.11 1020 10 16 0.00 0.00
12:35 am 00:35 Clear 71 21.9 N/A N/A Calm 30.11 1020 10 16 0.00 0.00
12:55 am 00:55 Clear 70 21.3 N/A N/A Calm 30.11 1020 10 16 0.00 0.00
1:15 am 01:15 Clear 72 22 N/A N/A Calm 30.11 1020 10 16 0.00 0.00
1:35 am 01:35 Clear 70 21.3 N/A N/A Calm 30.11 1020 10 16 0.00 0.00
1:55 am 01:55 Clear 70 21 N/A N/A Calm 30.10 1019 7 11 0.00 0.00
2:15 am 02:15 Clear 70 20.9 N/A N/A Calm 30.10 1019 10 16 0.00 0.00
2:35 am 02:35 Clear 70 20.9 N/A N/A Calm 30.10 1019 10 16 0.00 0.00
2:55 am 02:55 Clear 69 20.7 N/A N/A Calm 30.10 1019 10 16 0.00 0.00
3:15 am 03:15 Clear 69 20.4 N/A N/A Calm 30.10 1019 7 11 0.00 0.00
3:35 am 03:35 Clear 69 20.3 N/A N/A Calm 30.10 1019 10 16 0.00 0.00
3:55 am 03:55 Clear 68 20.2 N/A N/A Calm 30.10 1019 10 16 0.00 0.00
4:15 am 04:15 Hazy 68 20.1 N/A N/A Calm 30.10 1019 7 11 0.00 0.00
4:35 am 04:35 Hazy 68 19.9 N/A N/A Calm 30.10 1019 7 11 0.00 0.00
4:55 am 04:55 Clear 67 19.7 N/A N/A Calm 30.11 1019 7 11 0.00 0.00
5:15 am 05:15 Hazy 67 19.7 N/A N/A Calm 30.11 1019 5 8 0.00 0.00
5:35 am 05:35 Clear 67 19.7 N/A N/A Calm 30.12 1020 7 11 0.00 0.00
5:55 am 05:55 Hazy 67 19.4 N/A N/A Calm 30.12 1020 5 8 0.00 0.00
6:15 am 06:15 Hazy 67 19.7 N/A N/A Calm 30.12 1020 5 8 0.00 0.00
6:35 am 06:35 Hazy 67 19.6 N/A N/A Calm 30.12 1020 5 8 0.00 0.00
6:55 am 06:55 Hazy 67 19.7 N/A N/A Calm 30.12 1020 4 6 0.00 0.00
7:15 am 07:15 Hazy 69 20.7 N/A N/A Calm 30.11 1020 5 8 0.00 0.00
7:35 am 07:35 Mostly Cloudy with Haze 71 21.9 N/A N/A Calm 30.10 1019 7 11 0.00 0.00
7:55 am 07:55 Mostly Cloudy 73 22.6 N/A N/A Calm 30.10 1019 7 11 0.00 0.00
8:15 am 08:15 Partly Cloudy 75 23.7 74 23.4 98 98 Calm 30.09 1019 10 16 0.00 0.00
8:35 am 08:35 Partly Cloudy 77 25 71 21.5 81 81 WSW 5 7 30.08 1019 10 16 0.00 0.00
8:55 am 08:55 Mostly Cloudy 78 25.7 68 20.1 71 71 WSW 3 6 30.08 1019 10 16 0.00 0.00
9:15 am 09:15 Partly Cloudy 80 26.9 68 19.9 66 66 SW 5 7 30.07 1018 10 16 0.00 0.00
9:35 am 09:35 Partly Cloudy 83 28.2 67 19.7 60 60 WSW 6 9 30.07 1018 10 16 0.00 0.00
9:55 am 09:55 Partly Cloudy 84 28.8 67 19.7 58 58 W 6 9 30.05 1018 10 16 0.00 0.00
10:15 am 10:15 Partly Cloudy 84 28.8 67 19.2 56 56 W 7 11 30.05 1018 10 16 0.00 0.00
10:35 am 10:35 Partly Cloudy 86 30.1 68 19.8 54 54 WSW 7 11 30.04 1017 10 16 0.00 0.00
10:55 am 10:55 Partly Cloudy 88 31.1 68 19.8 51 51 WSW 9 15 30.04 1017 10 16 0.00 0.00
11:15 am 11:15 Partly Cloudy 89 31.5 67 19.2 48 48 WSW 10 17 30.04 1017 10 16 0.00 0.00
11:35 am 11:35 Partly Cloudy 89 31.7 65 18.6 46 46 W 12 19 30.03 1017 10 16 0.00 0.00
11:55 am 11:55 Partly Cloudy 90 32 66 18.7 45 45 SW 6 9 30.03 1017 10 16 0.00 0.00
12:15 pm 12:15 Partly Cloudy 90 32.3 66 18.7 45 45 WSW 8 13 30.02 1016 10 16 0.00 0.00
12:35 pm 12:35 Mostly Cloudy 89 31.7 65 18.6 46 46 W 12 19 30.01 1016 10 16 0.00 0.00
12:55 pm 12:55 Partly Cloudy 91 32.6 65 18.3 43 43 W 14 22 30.00 1016 10 16 0.00 0.00
1:15 pm 13:15 Partly Cloudy 91 32.9 66 19 44 44 W 9 15 30.00 1016 10 16 0.00 0.00
1:35 pm 13:35 Mostly Cloudy 91 32.6 65 18.2 42 42 W 13 20 29.99 1015 10 16 0.00 0.00
1:55 pm 13:55 Partly Cloudy 91 32.5 65 18.3 43 43 W 14 22 29.98 1015 10 16 0.00 0.00
2:15 pm 14:15 Partly Cloudy 93 33.7 64 18 39 39 W 12 19 29.96 1015 10 16 0.00 0.00
2:35 pm 14:35 Partly Cloudy 92 33.4 65 18.1 40 40 W 15 24 29.96 1015 10 16 0.00 0.00
2:55 pm 14:55 Sunny 94 34.7 65 18.3 38 38 WSW 12 19 29.95 1014 10 16 0.00 0.00
3:15 pm 15:15 Partly Cloudy 91 32.6 63 17.3 40 40 WSW 13 20 29.95 1014 10 16 0.00 0.00
3:35 pm 15:35 Partly Cloudy 92 33.4 63 17.3 38 38 W 12 19 29.94 1014 10 16 0.00 0.00
3:55 pm 15:55 Partly Cloudy 93 33.9 64 17.8 39 39 W 13 20 29.93 1014 10 16 0.00 0.00
4:15 pm 16:15 Sunny 92 33.6 62 16.9 37 37 W 12 19 29.93 1014 10 16 0.00 0.00
4:35 pm 16:35 Sunny 94 34.4 62 16.9 35 35 W 13 20 29.92 1013 10 16 0.00 0.00
4:55 pm 16:55 Partly Cloudy 93 33.8 63 17.2 37 37 WSW 9 15 29.91 1013 10 16 0.00 0.00
5:15 pm 17:15 Partly Cloudy 94 34.4 62 16.7 35 35 W 15 24 29.90 1013 10 16 0.00 0.00
5:35 pm 17:35 Partly Cloudy 91 32.8 62 16.8 38 38 W 12 19 29.91 1013 10 16 0.00 0.00
5:55 pm 17:55 Partly Cloudy 93 33.7 62 16.8 37 37 WSW 14 22 29.89 1012 10 16 0.00 0.00
6:15 pm 18:15 Partly Cloudy 92 33.5 63 17.2 38 38 W 12 19 29.89 1012 10 16 0.00 0.00
6:35 pm 18:35 Partly Cloudy 92 33.5 62 16.9 37 37 WSW 12 19 29.88 1012 10 16 0.00 0.00
6:55 pm 18:55 Sunny 92 33.2 63 17.4 39 39 WSW 14 22 29.89 1012 10 16 0.00 0.00
7:15 pm 19:15 Sunny 91 33 63 17.3 39 39 W 9 15 29.88 1012 10 16 0.00 0.00
7:35 pm 19:35 Partly Cloudy 90 32.4 63 17.2 40 40 W 8 13 29.88 1012 10 16 0.00 0.00
7:55 pm 19:55 Sunny 89 31.4 63 17.4 43 43 W 9 15 29.88 1012 10 16 0.00 0.00
8:15 pm 20:15 Sunny 88 31.2 64 17.7 45 45 WSW 8 13 29.87 1011 10 16 0.00 0.00
8:35 pm 20:35 Sunny 86 29.8 65 18.2 50 50 W 6 9 29.87 1012 10 16 0.00 0.00
8:55 pm 20:55 Sunny 82 27.9 67 19.3 60 60 WSW 5 7 29.87 1011 10 16 0.00 0.00
9:15 pm 21:15 Clear 81 27.1 66 18.9 61 61 WSW 5 7 29.86 1011 10 16 0.00 0.00
9:35 pm 21:35 Clear 80 26.9 66 18.9 62 62 WSW 5 7 29.86 1011 10 16 0.00 0.00
9:55 pm 21:55 Clear 81 27.2 65 18.6 59 59 WSW 5 7 29.86 1011 10 16 0.00 0.00
10:15 pm 22:15 Clear 80 26.7 66 18.9 62 62 W 3 6 29.87 1011 10 16 0.00 0.00
10:35 pm 22:35 Clear 80 26.7 66 18.8 62 62 SW 6 9 29.86 1011 10 16 0.00 0.00
10:55 pm 22:55 Clear 80 26.6 66 18.9 63 63 W 6 9 29.87 1012 10 16 0.00 0.00
11:15 pm 23:15 Clear 79 26.1 67 19.2 66 66 WSW 6 9 29.87 1012 10 16 0.00 0.00
11:35 pm 23:35 Clear 79 26.2 67 19.2 65 65 WSW 7 11 29.87 1012 10 16 0.00 0.00
11:55 pm 23:55 Clear 78 25.7 66 19 67 67 WSW 7 11 29.87 1012 10 16 0.00 0.00

Powered by Vaisala Xweather